Location: Newark
(7.1028°S, 35.3258°W)
Time: 07:25:32
(UTC+00:00)

Vanguard 3 - Pass Details

Date: 27 February 2020
Orbit: 508 x 3263 km, 33.4° (Epoch: 08 April)

Event Time Altitude Azimuth Distance (km) Brightness Sun altitude
Rises 03:17:19 0° 228° (SW) 6,122 11.7 -71.0°
Enters shadow 03:18:52 - 226° (SW) 5,702 11.5 -70.8°
Reaches altitude 10° 03:22:52 10° 218° (SW) 4,599 - -70.2°
Maximum altitude 03:32:16 27° 165° (SSE) 2,484 - -68.7°
Drops below altitude 10° 03:38:17 10° 108° (ESE) 2,865 - -67.6°
Sets 03:40:50 0° 95° (E) 3,517 - -67.2°
